Flag for Puerto Rico Weather past 2 weeks in San Juan, Puerto Rico

Now
83 °F

Scattered clouds.


Feels Like: 89 °F
Forecast: 77 / 85 °F
Wind: 9 mph from North

Location: Luis Munoz Marin

Current Time: May 27, 2015 at 10:53:48 AM

Latest Report: May 27, 2015 at 9:56 AM


Visibility: 10 mi

Pressure: 30.00 "Hg

Humidity: 72%

Dew point: 73 °F

Location of San JuanLocation

Historic Weather in San Juan — Graph

°F

San Juan temperature yesterday

Maximum temperature yesterday: 86 °F (at 1:56 PM)
Minimum temperature yesterday: 77 °F (at 3:56 AM)
Average temperature yesterday: 81 °F

Past Weeks' High & Low Weather Summary

 TemperatureHumidityPressure
High90 °F (May 13, 11:56 AM)97% (May 20, 5:56 PM)30.14 "Hg (May 20, 5:56 PM)
Low76 °F (May 14, 4:56 AM)48% (May 13, 11:56 AM)29.95 "Hg (May 20, 4:56 PM)
Average82 °F77%30.04 "Hg
* Reported May 12 9:56 AM — May 27 9:56 AM, San Juan, Weather by CustomWeather, © 2015

Note: Actual official high and low records may vary slightly from our data, if they occured in-between our weather recording intervals... More about our weather records

Advertising

San Juan weather history for previous 24 hours

 ConditionsComfort  
Time TempWeatherWind HumidityBarometerVisibility
9:56 AM
Wed, May 27
83 °FScattered clouds.9 mph72%30.00 "Hg10 mi
8:56 AM82 °FScattered clouds.6 mph74%29.99 "Hg10 mi
7:56 AM81 °FPassing clouds.No wind74%29.98 "Hg10 mi
6:56 AM79 °FScattered clouds.No wind79%29.97 "Hg10 mi
5:56 AM77 °FPassing clouds.No wind85%29.96 "Hg10 mi
4:56 AM77 °FPassing clouds.No wind88%29.95 "Hg10 mi
3:56 AM77 °FPassing clouds.3 mph88%29.95 "Hg10 mi
2:56 AM78 °FPassing clouds.No wind79%29.96 "Hg10 mi
1:56 AM78 °FPassing clouds.No wind79%29.96 "Hg10 mi
12:56 AM79 °FPassing clouds.3 mph77%29.98 "Hg10 mi
11:56 PM
Tue, May 26
79 °FPassing clouds.5 mph77%30.01 "Hg10 mi
10:56 PM80 °FPassing clouds.8 mph76%30.03 "Hg10 mi
9:56 PM80 °FPassing clouds.10 mph74%30.02 "Hg10 mi
8:56 PM81 °FPassing clouds.8 mph74%30.02 "Hg10 mi
7:56 PM81 °FPassing clouds.8 mph74%30.01 "Hg10 mi
6:56 PM81 °FScattered clouds.9 mph74%30.00 "Hg10 mi
5:56 PM82 °FScattered clouds.14 mph70%29.99 "Hg10 mi
4:56 PM84 °FScattered clouds.13 mph70%29.98 "Hg10 mi
3:56 PM84 °FScattered clouds.12 mph70%29.98 "Hg10 mi
2:56 PM85 °FScattered clouds.14 mph65%29.99 "Hg10 mi
1:56 PM86 °FScattered clouds.13 mph63%30.00 "Hg10 mi
12:56 PM85 °FScattered clouds.12 mph68%30.02 "Hg10 mi
11:56 AM85 °FScattered clouds.9 mph68%30.04 "Hg10 mi
10:56 AM85 °FScattered clouds.12 mph65%30.06 "Hg10 mi
Weather by CustomWeather, © 2015

See weather overviewHow to use our weather pages